• în România
  • Lista ţărilor
  • Pe 7 zile
  • Temperatura apei
  • Hartă satelitară
  • Meteo pe hartă
  • Widget-uri
  • user-avatar
    Intrare

    Meteo pe oră la Ischgl

    Astăzi, 18 Noiembrie, Sâmbătă

    Timp Temperatura Precipitaţii Vânt Presiune Umiditate
    00:00 -10°C° 0 mm 1 m/s 571 mmHg 91%
    01:00 -11°C° 0 mm 1 m/s 570 mmHg 92%
    02:00 -11°C° 0 mm 1 m/s 570 mmHg 91%
    03:00 -11°C° 0 mm 1 m/s 570 mmHg 91%
    04:00 -11°C° 0 mm 1 m/s 570 mmHg 91%
    05:00 -11°C° 0 mm 1 m/s 570 mmHg 91%
    06:00 -11°C° 0 mm 1 m/s 570 mmHg 92%
    07:00 -9°C° 0 mm 1 m/s 571 mmHg 93%
    08:00 -8°C° 0 mm 1 m/s 571 mmHg 91%
    09:00 -7°C° 0 mm 1 m/s 572 mmHg 88%
    10:00 -6°C° 0 mm 1 m/s 572 mmHg 86%
    11:00 -4°C° 0 mm 1 m/s 572 mmHg 82%
    12:00 -3°C° 0 mm 1 m/s 573 mmHg 79%
    13:00 -5°C° 0 mm 2 m/s 572 mmHg 80%
    14:00 -6°C° 0 mm 2 m/s 572 mmHg 83%
    15:00 -7°C° 0 mm 2 m/s 571 mmHg 86%
    16:00 -7°C° 0 mm 1 m/s 571 mmHg 89%
    17:00 -10°C° 0 mm 2 m/s 570 mmHg 87%
    18:00 -12°C° 0 mm 2 m/s 570 mmHg 85%
    19:00 -13°C° 0 mm 2 m/s 569 mmHg 82%
    20:00 -13°C° 0 mm 2 m/s 569 mmHg 78%
    21:00 -13°C° 0 mm 2 m/s 569 mmHg 74%
    22:00 -14°C° 0 mm 2 m/s 569 mmHg 70%
    23:00 -14°C° 0 mm 2 m/s 569 mmHg 69%

    Mâine, 19 Noiembrie, Duminică

    Timp Temperatura Precipitaţii Vânt Presiune Umiditate
    00:00 -14°C° 0 mm 2 m/s 569 mmHg 67%
    01:00 -13°C° 0 mm 2 m/s 568 mmHg 65%
    02:00 -13°C° 0 mm 2 m/s 568 mmHg 63%
    03:00 -12°C° 0 mm 2 m/s 568 mmHg 62%
    04:00 -10°C° 0 mm 2 m/s 568 mmHg 60%
    05:00 -10°C° 0,7 mm 2 m/s 568 mmHg 69%
    06:00 -10°C° 0,7 mm 2 m/s 568 mmHg 78%
    07:00 -10°C° 0,7 mm 2 m/s 568 mmHg 87%
    08:00 -9°C° 1,2 mm 2 m/s 568 mmHg 89%
    09:00 -9°C° 1,2 mm 2 m/s 569 mmHg 91%
    10:00 -8°C° 1,2 mm 2 m/s 569 mmHg 93%
    11:00 -9°C° 0,5 mm 3 m/s 569 mmHg 90%
    12:00 -9°C° 0,5 mm 3 m/s 569 mmHg 88%
    13:00 -9°C° 0,5 mm 4 m/s 569 mmHg 86%
    14:00 -9°C° 0,4 mm 3 m/s 569 mmHg 87%
    15:00 -9°C° 0,4 mm 3 m/s 569 mmHg 89%
    16:00 -10°C° 0,4 mm 3 m/s 569 mmHg 91%
    17:00 -10°C° 0,3 mm 3 m/s 569 mmHg 91%
    18:00 -12°C° 0,3 mm 3 m/s 570 mmHg 92%
    19:00 -10°C° 0,3 mm 2 m/s 570 mmHg 93%
    20:00 -12°C° 0,1 mm 2 m/s 570 mmHg 93%
    21:00 -12°C° 0,1 mm 2 m/s 570 mmHg 93%
    22:00 -13°C° 0,1 mm 2 m/s 571 mmHg 94%
    23:00 -13°C° 0 mm 2 m/s 570 mmHg 93%

    Poimâine, 20 Noiembrie, Luni

    Timp Temperatura Precipitaţii Vânt Presiune Umiditate
    00:00 -14°C° 0 mm 2 m/s 570 mmHg 93%
    01:00 -15°C° 0 mm 2 m/s 570 mmHg 93%
    02:00 -15°C° 0 mm 2 m/s 570 mmHg 91%
    03:00 -16°C° 0 mm 2 m/s 570 mmHg 89%
    04:00 -16°C° 0 mm 2 m/s 569 mmHg 87%
    05:00 -16°C° 0 mm 2 m/s 570 mmHg 82%
    06:00 -16°C° 0 mm 2 m/s 570 mmHg 78%
    07:00 -16°C° 0 mm 2 m/s 570 mmHg 74%
    08:00 -14°C° 0 mm 2 m/s 571 mmHg 72%
    09:00 -10°C° 0 mm 2 m/s 572 mmHg 70%
    10:00 -8°C° 0 mm 2 m/s 573 mmHg 67%
    11:00 -7°C° 0 mm 2 m/s 574 mmHg 67%
    12:00 -5°C° 0 mm 2 m/s 574 mmHg 66%
    13:00 -4°C° 0 mm 2 m/s 574 mmHg 66%
    14:00 -5°C° 0 mm 2 m/s 574 mmHg 69%
    15:00 -6°C° 0 mm 2 m/s 573 mmHg 72%
    16:00 -6°C° 0 mm 2 m/s 572 mmHg 75%
    17:00 -7°C° 0 mm 2 m/s 572 mmHg 73%
    18:00 -8°C° 0 mm 2 m/s 571 mmHg 72%
    19:00 -9°C° 0 mm 2 m/s 571 mmHg 70%
    20:00 -9°C° 0 mm 2 m/s 571 mmHg 71%
    21:00 -9°C° 0 mm 2 m/s 571 mmHg 72%
    22:00 -9°C° 0 mm 2 m/s 571 mmHg 73%
    23:00 -9°C° 0 mm 2 m/s 571 mmHg 74%

    21 Noiembrie, Marţi

    Timp Temperatura Precipitaţii Vânt Presiune Umiditate
    00:00 -9°C° 0 mm 2 m/s 571 mmHg 74%
    01:00 -9°C° 0 mm 2 m/s 571 mmHg 75%
    02:00 -8°C° 0,1 mm 2 m/s 571 mmHg 77%
    03:00 -8°C° 0,1 mm 2 m/s 571 mmHg 79%
    04:00 -8°C° 0,1 mm 2 m/s 572 mmHg 81%
    05:00 -8°C° 0 mm 2 m/s 572 mmHg 82%
    06:00 -8°C° 0 mm 2 m/s 572 mmHg 84%
    07:00 -8°C° 0 mm 2 m/s 571 mmHg 86%
    08:00 -7°C° 0 mm 2 m/s 572 mmHg 85%
    09:00 -5°C° 0 mm 2 m/s 573 mmHg 85%
    10:00 -4°C° 0 mm 2 m/s 573 mmHg 85%
    11:00 -3°C° 0 mm 2 m/s 574 mmHg 86%
    12:00 -2°C° 0 mm 2 m/s 574 mmHg 88%
    13:00 -1°C° 0 mm 2 m/s 574 mmHg 90%
    14:00 0°C° 0 mm 1 m/s 574 mmHg 88%
    15:00 -1°C° 0 mm 1 m/s 573 mmHg 86%
    16:00 -2°C° 0 mm 1 m/s 573 mmHg 84%
    17:00 -5°C° 0 mm 2 m/s 572 mmHg 82%
    18:00 -6°C° 0 mm 2 m/s 572 mmHg 79%
    19:00 -7°C° 0 mm 2 m/s 572 mmHg 77%
    20:00 -7°C° 0 mm 2 m/s 572 mmHg 74%
    21:00 -7°C° 0 mm 2 m/s 572 mmHg 72%
    22:00 -7°C° 0 mm 2 m/s 572 mmHg 70%
    23:00 -7°C° 0 mm 2 m/s 572 mmHg 68%

    22 Noiembrie, Miercuri

    Timp Temperatura Precipitaţii Vânt Presiune Umiditate
    00:00 -7°C° 0 mm 2 m/s 572 mmHg 67%
    01:00 -7°C° 0 mm 2 m/s 572 mmHg 65%
    02:00 -7°C° 0 mm 2 m/s 572 mmHg 64%
    03:00 -7°C° 0 mm 2 m/s 572 mmHg 63%
    04:00 -7°C° 0 mm 2 m/s 572 mmHg 61%
    05:00 -7°C° 0 mm 2 m/s 572 mmHg 60%
    06:00 -7°C° 0 mm 2 m/s 572 mmHg 59%
    07:00 -7°C° 0 mm 2 m/s 572 mmHg 57%
    08:00 -6°C° 0 mm 2 m/s 572 mmHg 59%
    09:00 -2°C° 0 mm 1 m/s 573 mmHg 62%
    10:00 0°C° 0 mm 1 m/s 574 mmHg 64%
    11:00 +1°C° 0 mm 1 m/s 574 mmHg 69%
    12:00 +2°C° 0 mm 1 m/s 575 mmHg 74%
    13:00 +2°C° 0 mm 1 m/s 575 mmHg 79%
    14:00 -1°C° 0 mm 2 m/s 574 mmHg 77%
    15:00 -2°C° 0 mm 2 m/s 573 mmHg 74%
    16:00 -3°C° 0 mm 2 m/s 573 mmHg 72%
    17:00 -4°C° 0 mm 2 m/s 572 mmHg 71%
    18:00 -5°C° 0 mm 2 m/s 572 mmHg 70%
    19:00 -6°C° 0 mm 2 m/s 572 mmHg 69%
    20:00 -7°C° 0 mm 3 m/s 572 mmHg 69%
    21:00 -7°C° 0 mm 3 m/s 572 mmHg 69%
    22:00 -8°C° 0 mm 3 m/s 572 mmHg 69%
    23:00 -8°C° 0 mm 3 m/s 572 mmHg 69%

    23 Noiembrie, Joi

    Timp Temperatura Precipitaţii Vânt Presiune Umiditate
    00:00 -8°C° 0 mm 3 m/s 572 mmHg 69%
    01:00 -8°C° 0 mm 3 m/s 572 mmHg 69%
    02:00 -8°C° 0 mm 3 m/s 572 mmHg 68%
    03:00 -8°C° 0 mm 3 m/s 572 mmHg 67%
    04:00 -8°C° 0 mm 3 m/s 572 mmHg 67%
    05:00 -8°C° 0 mm 3 m/s 572 mmHg 66%
    06:00 -8°C° 0 mm 3 m/s 572 mmHg 65%
    07:00 -8°C° 0 mm 3 m/s 572 mmHg 64%
    08:00 -6°C° 0 mm 2 m/s 573 mmHg 65%
    09:00 -4°C° 0 mm 2 m/s 574 mmHg 67%
    10:00 -3°C° 0 mm 2 m/s 575 mmHg 68%
    11:00 -2°C° 0 mm 2 m/s 575 mmHg 72%
    12:00 -1°C° 0 mm 2 m/s 576 mmHg 76%
    13:00 +2°C° 0 mm 1 m/s 576 mmHg 81%
    14:00 +1°C° 0 mm 1 m/s 576 mmHg 79%
    15:00 0°C° 0 mm 1 m/s 575 mmHg 77%
    16:00 -1°C° 0 mm 1 m/s 575 mmHg 75%
    17:00 -2°C° 0 mm 1 m/s 574 mmHg 74%
    18:00 -4°C° 0 mm 1 m/s 574 mmHg 73%
    19:00 -6°C° 0 mm 1 m/s 574 mmHg 72%
    20:00 -7°C° 0 mm 2 m/s 574 mmHg 70%
    21:00 -7°C° 0 mm 2 m/s 574 mmHg 68%
    22:00 -7°C° 0 mm 2 m/s 575 mmHg 66%
    23:00 -7°C° 0 mm 2 m/s 575 mmHg 66%
    Arată mai mult